| time (UTC) | temp F | wind direction | speed MPH | gust MPH | rain 1hr in | rain 24hr in | rain mn in | humidity % | barometer mb |
| 20260510152745 | 69 | 353 | 3.0 | 10.0 | 0.00 | 0.00 | 0.00 | 37 | 1013.2 |
| 20260510152245 | 69 | 37 | 4.0 | 9.0 | 0.00 | 0.00 | 0.00 | 38 | 1013.2 |
| 20260510151745 | 69 | 82 | 6.0 | 6.0 | 0.00 | 0.00 | 0.00 | 36 | 1013.2 |
| 20260510151245 | 69 | 190 | 14.0 | 15.0 | 0.00 | 0.00 | 0.00 | 36 | 1013.2 |
| 20260510150745 | 70 | 207 | 6.0 | 10.0 | 0.00 | 0.00 | 0.00 | 35 | 1013.2 |
| 20260510150245 | 69 | 162 | 3.0 | 3.0 | 0.00 | 0.00 | 0.00 | 37 | 1013.2 |
| 20260510145745 | 69 | 158 | 4.0 | 6.0 | 0.00 | 0.00 | 0.00 | 37 | 1013.6 |
| 20260510145245 | 69 | 52 | 4.0 | 6.0 | 0.00 | 0.00 | 0.00 | 38 | 1013.6 |
| 20260510144745 | 69 | 87 | 4.0 | 10.0 | 0.00 | 0.00 | 0.00 | 37 | 1013.9 |
| 20260510144245 | 69 | 77 | 9.0 | 13.0 | 0.00 | 0.00 | 0.00 | 36 | 1013.9 |
| 20260510143745 | 70 | 58 | 1.0 | 7.0 | 0.00 | 0.00 | 0.00 | 38 | 1013.9 |
| 20260510143245 | 70 | 180 | 6.0 | 6.0 | 0.00 | 0.00 | 0.00 | 38 | 1013.6 |
| 20260510142745 | 70 | 224 | 3.0 | 4.0 | 0.00 | 0.00 | 0.00 | 36 | 1013.6 |
| 20260510142245 | 69 | 144 | 8.0 | 10.0 | 0.00 | 0.00 | 0.00 | 35 | 1013.9 |
| 20260510141745 | 69 | 23 | 6.0 | 8.0 | 0.00 | 0.00 | 0.00 | 34 | 1013.9 |
| 20260510141245 | 69 | 172 | 9.0 | 11.0 | 0.00 | 0.00 | 0.00 | 35 | 1013.9 |
| 20260510140745 | 70 | 160 | 12.0 | 12.0 | 0.00 | 0.00 | 0.00 | 35 | 1013.9 |
| 20260510140245 | 69 | 176 | 5.0 | 8.0 | 0.00 | 0.00 | 0.00 | 36 | 1013.9 |
| 20260510135745 | 69 | 164 | 6.0 | 7.0 | 0.00 | 0.00 | 0.00 | 35 | 1014.2 |
| 20260510135245 | 69 | 190 | 6.0 | 6.0 | 0.00 | 0.00 | 0.00 | 36 | 1014.2 |
| 20260510134745 | 69 | 208 | 10.0 | 13.0 | 0.00 | 0.00 | 0.00 | 34 | 1014.2 |
| 20260510134245 | 71 | 268 | 1.0 | 1.0 | 0.00 | 0.00 | 0.00 | 37 | 1014.2 |
| 20260510133745 | 70 | 208 | 7.0 | 9.0 | 0.00 | 0.00 | 0.00 | 33 | 1014.2 |
| 20260510133245 | 70 | 347 | 3.0 | 3.0 | 0.00 | 0.00 | 0.00 | 32 | 1014.2 |
| 20260510132745 | 69 | 114 | 4.0 | 6.0 | 0.00 | 0.00 | 0.00 | 32 | 1014.2 |
| 20260510132245 | 69 | 175 | 10.0 | 10.0 | 0.00 | 0.00 | 0.00 | 34 | 1014.2 |
| 20260510131745 | 69 | 121 | 13.0 | 13.0 | 0.00 | 0.00 | 0.00 | 33 | 1014.2 |
| 20260510131245 | 69 | 164 | 10.0 | 11.0 | 0.00 | 0.00 | 0.00 | 32 | 1014.2 |
| 20260510130745 | 69 | 178 | 10.0 | 12.0 | 0.00 | 0.00 | 0.00 | 35 | 1014.2 |
| 20260510130245 | 70 | 174 | 5.0 | 10.0 | 0.00 | 0.00 | 0.00 | 35 | 1014.2 |
| 20260510125745 | 70 | 79 | 5.0 | 8.0 | 0.00 | 0.00 | 0.00 | 35 | 1014.6 |
| 20260510125245 | 69 | 140 | 3.0 | 3.0 | 0.00 | 0.00 | 0.00 | 35 | 1014.6 |
| 20260510124745 | 69 | 209 | 8.0 | 10.0 | 0.00 | 0.00 | 0.00 | 34 | 1014.6 |
| 20260510124245 | 69 | 171 | 6.0 | 7.0 | 0.00 | 0.00 | 0.00 | 33 | 1014.6 |
| 20260510123745 | 69 | 174 | 5.0 | 10.0 | 0.00 | 0.00 | 0.00 | 34 | 1014.6 |
| 20260510123245 | 69 | 54 | 3.0 | 4.0 | 0.00 | 0.00 | 0.00 | 36 | 1014.9 |
| 20260510122745 | 68 | 305 | 2.0 | 3.0 | 0.00 | 0.00 | 0.00 | 34 | 1014.9 |
| 20260510122245 | 68 | 35 | 7.0 | 8.0 | 0.00 | 0.00 | 0.00 | 37 | 1014.9 |
| 20260510121745 | 68 | 100 | 11.0 | 16.0 | 0.00 | 0.00 | 0.00 | 38 | 1014.9 |
| 20260510121245 | 68 | 168 | 9.0 | 12.0 | 0.00 | 0.00 | 0.00 | 36 | 1015.2 |
| 20260510120745 | 67 | 147 | 14.0 | 17.0 | 0.00 | 0.00 | 0.00 | 35 | 1015.2 |
| 20260510120245 | 67 | 7 | 7.0 | 11.0 | 0.00 | 0.00 | 0.00 | 35 | 1015.2 |
| 20260510115745 | 67 | 197 | 15.0 | 15.0 | 0.00 | 0.00 | 0.00 | 34 | 1015.2 |
| 20260510115245 | 69 | 124 | 4.0 | 8.0 | 0.00 | 0.00 | 0.00 | 34 | 1015.2 |
| 20260510114745 | 67 | 253 | 4.0 | 9.0 | 0.00 | 0.00 | 0.00 | 33 | 1015.2 |
| 20260510114245 | 68 | 82 | 5.0 | 9.0 | 0.00 | 0.00 | 0.00 | 35 | 1015.2 |
| 20260510113745 | 67 | 132 | 6.0 | 6.0 | 0.00 | 0.00 | 0.00 | 34 | 1015.2 |
| 20260510113245 | 67 | 123 | 14.0 | 15.0 | 0.00 | 0.00 | 0.00 | 38 | 1015.2 |
| 20260510112745 | 67 | 60 | 11.0 | 13.0 | 0.00 | 0.00 | 0.00 | 35 | 1015.2 |
| 20260510112245 | 66 | 116 | 7.0 | 11.0 | 0.00 | 0.00 | 0.00 | 38 | 1015.9 |
| 20260510111745 | 67 | 175 | 3.0 | 6.0 | 0.00 | 0.00 | 0.00 | 37 | 1015.9 |
| 20260510111245 | 66 | 137 | 10.0 | 10.0 | 0.00 | 0.00 | 0.00 | 36 | 1016.3 |
| 20260510110744 | 66 | 146 | 10.0 | 17.0 | 0.00 | 0.00 | 0.00 | 37 | 1016.3 |
| 20260510110245 | 65 | 151 | 15.0 | 21.0 | 0.00 | 0.00 | 0.00 | 37 | 1016.3 |
| 20260510105745 | 66 | 158 | 6.0 | 6.0 | 0.00 | 0.00 | 0.00 | 40 | 1016.6 |
| 20260510105245 | 64 | 226 | 14.0 | 16.0 | 0.00 | 0.00 | 0.00 | 39 | 1016.6 |
| 20260510104745 | 66 | 176 | 6.0 | 12.0 | 0.00 | 0.00 | 0.00 | 38 | 1016.6 |
| 20260510104245 | 65 | 140 | 7.0 | 16.0 | 0.00 | 0.00 | 0.00 | 39 | 1016.6 |
| 20260510103745 | 64 | 175 | 9.0 | 18.0 | 0.00 | 0.00 | 0.00 | 38 | 1016.6 |
| 20260510103245 | 65 | 176 | 6.0 | 7.0 | 0.00 | 0.00 | 0.00 | 36 | 1016.6 |
| 20260510102745 | 67 | 72 | 3.0 | 3.0 | 0.00 | 0.00 | 0.00 | 38 | 1016.6 |
| 20260510102245 | 66 | 160 | 8.0 | 19.0 | 0.00 | 0.00 | 0.00 | 43 | 1016.9 |
| 20260510101745 | 66 | 43 | 3.0 | 7.0 | 0.00 | 0.00 | 0.00 | 41 | 1016.9 |
| 20260510101245 | 65 | 163 | 7.0 | 9.0 | 0.00 | 0.00 | 0.00 | 43 | 1016.9 |
| 20260510100745 | 65 | 74 | 9.0 | 9.0 | 0.00 | 0.00 | 0.00 | 38 | 1016.9 |
| 20260510100245 | 64 | 215 | 15.0 | 19.0 | 0.00 | 0.00 | 0.00 | 39 | 1016.9 |
| 20260510095745 | 65 | 76 | 2.0 | 3.0 | 0.00 | 0.00 | 0.00 | 38 | 1016.9 |
| 20260510095245 | 65 | 169 | 6.0 | 10.0 | 0.00 | 0.00 | 0.00 | 42 | 1016.9 |
| 20260510094745 | 66 | 140 | 6.0 | 9.0 | 0.00 | 0.00 | 0.00 | 45 | 1017.3 |
| 20260510094245 | 64 | 74 | 8.0 | 9.0 | 0.00 | 0.00 | 0.00 | 42 | 1017.3 |
| 20260510093745 | 63 | 166 | 16.0 | 18.0 | 0.00 | 0.00 | 0.00 | 41 | 1017.3 |
| 20260510093245 | 64 | 94 | 8.0 | 10.0 | 0.00 | 0.00 | 0.00 | 42 | 1017.3 |
| 20260510092745 | 64 | 143 | 12.0 | 14.0 | 0.00 | 0.00 | 0.00 | 44 | 1017.3 |
| 20260510092245 | 64 | 75 | 19.0 | 19.0 | 0.00 | 0.00 | 0.00 | 40 | 1017.3 |
| 20260510091745 | 63 | 164 | 11.0 | 12.0 | 0.00 | 0.00 | 0.00 | 42 | 1017.3 |
| 20260510091245 | 63 | 114 | 4.0 | 4.0 | 0.00 | 0.00 | 0.00 | 46 | 1017.3 |
| 20260510090745 | 63 | 66 | 7.0 | 10.0 | 0.00 | 0.00 | 0.00 | 46 | 1017.3 |
| 20260510090245 | 62 | 164 | 11.0 | 13.0 | 0.00 | 0.00 | 0.00 | 48 | 1017.3 |
| 20260510085745 | 62 | 193 | 17.0 | 25.0 | 0.00 | 0.00 | 0.00 | 47 | 1017.6 |
| 20260510085245 | 63 | 239 | 4.0 | 10.0 | 0.00 | 0.00 | 0.00 | 45 | 1017.6 |
| 20260510084745 | 62 | 59 | 9.0 | 11.0 | 0.00 | 0.00 | 0.00 | 44 | 1018.0 |
| 20260510084244 | 61 | 81 | 5.0 | 8.0 | 0.00 | 0.00 | 0.00 | 47 | 1018.0 |
| 20260510083744 | 62 | 138 | 3.0 | 7.0 | 0.00 | 0.00 | 0.00 | 49 | 1018.0 |
| 20260510083244 | 62 | 239 | 4.0 | 4.0 | 0.00 | 0.00 | 0.00 | 46 | 1018.0 |
| 20260510082744 | 62 | 86 | 7.0 | 9.0 | 0.00 | 0.00 | 0.00 | 47 | 1018.0 |
| 20260510082244 | 62 | 356 | 5.0 | 11.0 | 0.00 | 0.00 | 0.00 | 44 | 1018.0 |
| 20260510081745 | 62 | 232 | 5.0 | 5.0 | 0.00 | 0.00 | 0.00 | 47 | 1018.0 |
| 20260510081244 | 62 | 77 | 6.0 | 16.0 | 0.00 | 0.00 | 0.00 | 47 | 1018.0 |
| 20260510080745 | 62 | 69 | 4.0 | 4.0 | 0.00 | 0.00 | 0.00 | 50 | 1018.0 |
| 20260510080244 | 60 | 157 | 13.0 | 21.0 | 0.00 | 0.00 | 0.00 | 49 | 1018.0 |
| 20260510075745 | 61 | 100 | 4.0 | 7.0 | 0.00 | 0.00 | 0.00 | 49 | 1018.0 |
| 20260510075245 | 60 | 79 | 6.0 | 6.0 | 0.00 | 0.00 | 0.00 | 49 | 1018.0 |
| 20260510074745 | 60 | 200 | 7.0 | 12.0 | 0.00 | 0.00 | 0.00 | 51 | 1018.0 |
| 20260510074244 | 59 | 140 | 9.0 | 16.0 | 0.00 | 0.00 | 0.00 | 52 | 1018.0 |
| 20260510073744 | 59 | 186 | 16.0 | 20.0 | 0.00 | 0.00 | 0.00 | 51 | 1018.0 |
| 20260510073245 | 60 | 178 | 14.0 | 14.0 | 0.00 | 0.00 | 0.00 | 52 | 1018.0 |
| 20260510072745 | 59 | 178 | 11.0 | 17.0 | 0.00 | 0.00 | 0.00 | 53 | 1018.0 |
| 20260510072245 | 59 | 196 | 13.0 | 23.0 | 0.00 | 0.00 | 0.00 | 54 | 1018.0 |
| 20260510071744 | 60 | 319 | 2.0 | 8.0 | 0.00 | 0.00 | 0.00 | 57 | 1018.0 |
| 20260510071245 | 59 | 169 | 19.0 | 19.0 | 0.00 | 0.00 | 0.00 | 54 | 1018.0 |
| 20260510070744 | 59 | 87 | 9.0 | 9.0 | 0.00 | 0.00 | 0.00 | 58 | 1018.0 |
| 20260510070244 | 59 | 117 | 9.0 | 9.0 | 0.00 | 0.00 | 0.00 | 55 | 1018.0 |
| 20260510065744 | 59 | 121 | 6.0 | 10.0 | 0.00 | 0.00 | 0.00 | 57 | 1018.0 |
| 20260510065244 | 58 | 167 | 5.0 | 5.0 | 0.00 | 0.00 | 0.00 | 58 | 1018.0 |
| 20260510064744 | 58 | 242 | 10.0 | 13.0 | 0.00 | 0.00 | 0.00 | 57 | 1018.0 |
| 20260510064244 | 58 | 165 | 4.0 | 9.0 | 0.00 | 0.00 | 0.00 | 58 | 1018.0 |
| 20260510063744 | 57 | 115 | 10.0 | 17.0 | 0.00 | 0.00 | 0.00 | 58 | 1018.0 |
| 20260510063244 | 57 | 113 | 6.0 | 13.0 | 0.00 | 0.00 | 0.00 | 61 | 1018.0 |
| 20260510062744 | 57 | 106 | 6.0 | 11.0 | 0.00 | 0.00 | 0.00 | 63 | 1018.0 |
| 20260510062244 | 56 | 79 | 5.0 | 8.0 | 0.00 | 0.00 | 0.00 | 63 | 1018.3 |
| 20260510061745 | 55 | 147 | 7.0 | 14.0 | 0.00 | 0.00 | 0.00 | 65 | 1018.3 |
| 20260510061244 | 55 | 174 | 4.0 | 6.0 | 0.00 | 0.00 | 0.00 | 69 | 1018.3 |
| 20260510060744 | 55 | 156 | 9.0 | 11.0 | 0.00 | 0.00 | 0.00 | 71 | 1018.3 |
| 20260510060245 | 55 | 155 | 5.0 | 6.0 | 0.00 | 0.00 | 0.00 | 75 | 1018.3 |
| 20260510055745 | 55 | 86 | 5.0 | 5.0 | 0.00 | 0.00 | 0.00 | 76 | 1018.3 |
| 20260510055245 | 54 | 156 | 3.0 | 4.0 | 0.00 | 0.00 | 0.00 | 80 | 1018.3 |
| 20260510054744 | 53 | 53 | 6.0 | 6.0 | 0.00 | 0.00 | 0.00 | 77 | 1019.0 |
| 20260510054245 | 53 | 51 | 3.0 | 3.0 | 0.00 | 0.00 | 0.00 | 79 | 1019.0 |
| 20260510053744 | 52 | 330 | 0.0 | 0.0 | 0.00 | 0.00 | 0.00 | 83 | 1019.0 |
| 20260510053244 | 51 | 338 | 0.0 | 0.0 | 0.00 | 0.00 | 0.00 | 84 | 1019.0 |
| 20260510052745 | 49 | 341 | 1.0 | 1.0 | 0.00 | 0.00 | 0.00 | 83 | 1019.0 |
| 20260510052245 | 49 | 346 | 0.0 | 0.0 | 0.00 | 0.00 | 0.00 | 83 | 1019.0 |
| 20260510051744 | 48 | 343 | 0.0 | 0.0 | 0.00 | 0.00 | 0.00 | 85 | 1019.0 |
| 20260510051244 | 46 | 348 | 0.0 | 1.0 | 0.00 | 0.00 | 0.00 | 86 | 1019.0 |
| 20260510050744 | 45 | 348 | 0.0 | 0.0 | 0.00 | 0.00 | 0.00 | 84 | 1019.0 |
| 20260510050244 | 45 | 342 | 0.0 | 0.0 | 0.00 | 0.00 | 0.00 | 88 | 1019.0 |
| 20260510045744 | 44 | 342 | 0.0 | 0.0 | 0.00 | 0.00 | 0.00 | 89 | 1019.0 |
| 20260510045245 | 43 | 341 | 0.0 | 0.0 | 0.00 | 0.00 | 0.00 | 91 | 1019.0 |
| 20260510044745 | 42 | 341 | 0.0 | 0.0 | 0.00 | 0.00 | 0.00 | 92 | 1019.0 |
| 20260510044244 | 41 | 340 | 0.0 | 0.0 | 0.00 | 0.00 | 0.00 | 94 | 1019.0 |
| 20260510043744 | 40 | 341 | 0.0 | 0.0 | 0.00 | 0.00 | 0.00 | 97 | 1019.0 |
| 20260510043244 | 39 | 340 | 0.0 | 0.0 | 0.00 | 0.00 | 0.00 | 98 | 1019.0 |
| 20260510042744 | 38 | 341 | 0.0 | 0.0 | 0.00 | 0.00 | 0.00 | 98 | 1019.0 |
| 20260510042244 | 37 | 335 | 0.0 | 0.0 | 0.00 | 0.00 | 0.00 | 98 | 1019.0 |
| 20260510041744 | 37 | 334 | 0.0 | 0.0 | 0.00 | 0.00 | 0.00 | 99 | 1019.0 |
| 20260510041245 | 37 | 334 | 0.0 | 0.0 | 0.00 | 0.00 | 0.00 | 98 | 1019.0 |
| 20260510040744 | 37 | 334 | 0.0 | 0.0 | 0.00 | 0.00 | 0.00 | 99 | 1019.0 |
| 20260510040244 | 36 | 334 | 0.0 | 0.0 | 0.00 | 0.00 | 0.00 | 99 | 1019.0 |
| 20260510035744 | 35 | 334 | 0.0 | 0.0 | 0.00 | 0.00 | 0.00 | 99 | 1019.3 |
| 20260510035244 | 35 | 334 | 0.0 | 0.0 | 0.00 | 0.00 | 0.00 | 99 | 1019.3 |
| 20260510034744 | 34 | 334 | 0.0 | 0.0 | 0.00 | 0.00 | 0.00 | 99 | 1019.0 |
| 20260510034245 | 33 | 334 | 0.0 | 0.0 | 0.00 | 0.00 | 0.00 | 99 | 1019.0 |
| 20260510033744 | 32 | 334 | 0.0 | 0.0 | 0.00 | 0.00 | 0.00 | 99 | 1019.0 |
| 20260510033244 | 32 | 334 | 0.0 | 0.0 | 0.00 | 0.00 | 0.00 | 99 | 1019.0 |
| 20260510032744 | 32 | 330 | 0.0 | 0.0 | 0.00 | 0.00 | 0.00 | 99 | 1019.0 |
| 20260510032244 | 32 | 329 | 0.0 | 0.0 | 0.00 | 0.00 | 0.00 | 99 | 1019.0 |
| 20260510031744 | 32 | 327 | 0.0 | 0.0 | 0.00 | 0.00 | 0.00 | 99 | 1019.0 |
| 20260510031244 | 32 | 333 | 0.0 | 0.0 | 0.00 | 0.00 | 0.00 | 99 | 1019.0 |
| 20260510030744 | 32 | 334 | 0.0 | 0.0 | 0.00 | 0.00 | 0.00 | 99 | 1019.0 |
| 20260510030244 | 32 | 334 | 0.0 | 0.0 | 0.00 | 0.00 | 0.00 | 99 | 1019.0 |
| 20260510025744 | 32 | 334 | 0.0 | 0.0 | 0.00 | 0.00 | 0.00 | 99 | 1019.0 |
| 20260510025244 | 32 | 334 | 0.0 | 0.0 | 0.00 | 0.00 | 0.00 | 99 | 1019.0 |
| 20260510024744 | 32 | 334 | 0.0 | 0.0 | 0.00 | 0.00 | 0.00 | 99 | 1019.3 |
| 20260510024244 | 33 | 334 | 0.0 | 0.0 | 0.00 | 0.00 | 0.00 | 99 | 1019.3 |
| 20260510023745 | 33 | 334 | 0.0 | 0.0 | 0.00 | 0.00 | 0.00 | 99 | 1019.3 |
| 20260510023245 | 32 | 334 | 0.0 | 0.0 | 0.00 | 0.00 | 0.00 | 99 | 1019.3 |
| 20260510022745 | 33 | 334 | 0.0 | 0.0 | 0.00 | 0.00 | 0.00 | 99 | 1019.3 |
| 20260510022244 | 33 | 331 | 0.0 | 0.0 | 0.00 | 0.00 | 0.00 | 99 | 1019.3 |
| 20260510021744 | 33 | 330 | 0.0 | 0.0 | 0.00 | 0.00 | 0.00 | 99 | 1019.3 |
| 20260510021245 | 33 | 330 | 0.0 | 0.0 | 0.00 | 0.00 | 0.00 | 99 | 1019.6 |
| 20260510020744 | 33 | 334 | 0.0 | 0.0 | 0.00 | 0.00 | 0.00 | 99 | 1019.6 |
| 20260510020244 | 33 | 334 | 0.0 | 0.0 | 0.00 | 0.00 | 0.00 | 99 | 1019.6 |
| 20260510015744 | 33 | 334 | 0.0 | 0.0 | 0.00 | 0.00 | 0.00 | 99 | 1019.3 |
| 20260510015244 | 33 | 334 | 0.0 | 0.0 | 0.00 | 0.00 | 0.00 | 99 | 1019.3 |
| 20260510014744 | 33 | 334 | 0.0 | 0.0 | 0.00 | 0.00 | 0.00 | 99 | 1019.6 |
| 20260510014244 | 33 | 332 | 0.0 | 0.0 | 0.00 | 0.00 | 0.00 | 99 | 1019.6 |
| 20260510013744 | 33 | 332 | 0.0 | 0.0 | 0.00 | 0.00 | 0.00 | 99 | 1019.6 |
| 20260510013244 | 33 | 332 | 0.0 | 0.0 | 0.00 | 0.00 | 0.00 | 99 | 1019.6 |
| 20260510012744 | 33 | 334 | 0.0 | 0.0 | 0.00 | 0.00 | 0.00 | 99 | 1019.6 |
| 20260510012244 | 33 | 334 | 0.0 | 0.0 | 0.00 | 0.00 | 0.00 | 99 | 1019.6 |
| 20260510011744 | 34 | 334 | 0.0 | 0.0 | 0.00 | 0.00 | 0.00 | 99 | 1019.6 |
| 20260510011244 | 34 | 334 | 0.0 | 0.0 | 0.00 | 0.00 | 0.00 | 99 | 1019.6 |
| 20260510010744 | 34 | 334 | 0.0 | 0.0 | 0.00 | 0.00 | 0.00 | 99 | 1019.6 |
| 20260510010244 | 34 | 334 | 0.0 | 0.0 | 0.00 | 0.00 | 0.00 | 99 | 1019.6 |
| 20260510005744 | 34 | 334 | 0.0 | 0.0 | 0.00 | 0.00 | 0.00 | 99 | 1019.6 |
| 20260510005244 | 34 | 334 | 0.0 | 0.0 | 0.00 | 0.00 | 0.00 | 98 | 1019.6 |
| 20260510004744 | 34 | 334 | 0.0 | 0.0 | 0.00 | 0.00 | 0.00 | 99 | 1020.0 |
| 20260510004244 | 35 | 334 | 0.0 | 0.0 | 0.00 | 0.00 | 0.00 | 98 | 1020.0 |
| 20260510003744 | 35 | 334 | 0.0 | 0.0 | 0.00 | 0.00 | 0.00 | 98 | 1020.0 |
| 20260510003244 | 35 | 320 | 0.0 | 0.0 | 0.00 | 0.00 | 0.00 | 98 | 1020.0 |
| 20260510002744 | 35 | 297 | 1.0 | 1.0 | 0.00 | 0.00 | 0.00 | 98 | 1020.0 |
| 20260510002244 | 35 | 334 | 0.0 | 0.0 | 0.00 | 0.00 | 0.00 | 99 | 1020.0 |
| 20260510001744 | 35 | 334 | 0.0 | 0.0 | 0.00 | 0.00 | 0.00 | 99 | 1020.0 |
| 20260510001244 | 35 | 333 | 0.0 | 0.0 | 0.00 | 0.00 | 0.00 | 98 | 1020.0 |
| 20260510000744 | 35 | 324 | 0.0 | 0.0 | 0.00 | 0.00 | 0.00 | 98 | 1020.0 |
| 20260510000244 | 35 | 324 | 0.0 | 0.0 | 0.00 | 0.00 | 0.00 | 98 | 1020.0 |
| 20260509235744 | 35 | 321 | 0.0 | 0.0 | 0.00 | 0.00 | 0.00 | 98 | 1020.0 |
| 20260509235244 | 36 | 298 | 1.0 | 1.0 | 0.00 | 0.00 | 0.00 | 98 | 1020.0 |
| 20260509234744 | 35 | 338 | 0.0 | 0.0 | 0.00 | 0.00 | 0.00 | 98 | 1020.0 |
| 20260509234244 | 36 | 338 | 0.0 | 0.0 | 0.00 | 0.00 | 0.00 | 98 | 1020.0 |
| 20260509233744 | 36 | 337 | 0.0 | 0.0 | 0.00 | 0.00 | 0.00 | 98 | 1020.0 |
| 20260509233244 | 36 | 338 | 0.0 | 0.0 | 0.00 | 0.00 | 0.00 | 98 | 1020.0 |
| 20260509232744 | 36 | 333 | 0.0 | 0.0 | 0.00 | 0.00 | 0.00 | 98 | 1020.0 |
| 20260509232244 | 36 | 334 | 0.0 | 0.0 | 0.00 | 0.00 | 0.00 | 98 | 1020.0 |
| 20260509231744 | 36 | 335 | 0.0 | 0.0 | 0.00 | 0.00 | 0.00 | 98 | 1020.0 |
| 20260509231244 | 36 | 335 | 0.0 | 0.0 | 0.00 | 0.00 | 0.00 | 98 | 1020.0 |
| 20260509230744 | 37 | 336 | 0.0 | 0.0 | 0.00 | 0.00 | 0.00 | 98 | 1020.0 |
| 20260509230244 | 37 | 336 | 0.0 | 0.0 | 0.00 | 0.00 | 0.00 | 98 | 1020.0 |
| 20260509225744 | 37 | 336 | 0.0 | 0.0 | 0.00 | 0.00 | 0.00 | 98 | 1020.0 |
| 20260509225244 | 37 | 336 | 0.0 | 0.0 | 0.00 | 0.00 | 0.00 | 98 | 1020.0 |
| 20260509224744 | 37 | 336 | 0.0 | 0.0 | 0.00 | 0.00 | 0.00 | 98 | 1020.0 |
| 20260509224244 | 37 | 335 | 0.0 | 0.0 | 0.00 | 0.00 | 0.00 | 98 | 1020.0 |
| 20260509223744 | 37 | 336 | 0.0 | 0.0 | 0.00 | 0.00 | 0.00 | 98 | 1020.0 |
| 20260509223244 | 37 | 335 | 0.0 | 0.0 | 0.00 | 0.00 | 0.00 | 98 | 1020.0 |
| 20260509222744 | 37 | 335 | 0.0 | 0.0 | 0.00 | 0.00 | 0.00 | 98 | 1020.0 |
| 20260509222244 | 38 | 335 | 0.0 | 0.0 | 0.00 | 0.00 | 0.00 | 98 | 1020.3 |
| 20260509221744 | 38 | 334 | 0.0 | 0.0 | 0.00 | 0.00 | 0.00 | 98 | 1020.3 |
| 20260509221244 | 38 | 335 | 0.0 | 0.0 | 0.00 | 0.00 | 0.00 | 98 | 1020.3 |
| 20260509220744 | 38 | 335 | 0.0 | 0.0 | 0.00 | 0.00 | 0.00 | 98 | 1020.3 |
| 20260509220244 | 38 | 335 | 0.0 | 0.0 | 0.00 | 0.00 | 0.00 | 98 | 1020.3 |
| 20260509215744 | 38 | 335 | 0.0 | 0.0 | 0.00 | 0.00 | 0.00 | 98 | 1020.3 |
| 20260509215244 | 39 | 335 | 0.0 | 0.0 | 0.00 | 0.00 | 0.00 | 98 | 1020.3 |
| 20260509214744 | 39 | 324 | 0.0 | 0.0 | 0.00 | 0.00 | 0.00 | 98 | 1020.3 |
| 20260509214244 | 39 | 331 | 0.0 | 0.0 | 0.00 | 0.00 | 0.00 | 98 | 1020.3 |
| 20260509213744 | 39 | 333 | 0.0 | 0.0 | 0.00 | 0.00 | 0.00 | 98 | 1020.3 |
| 20260509213244 | 39 | 333 | 0.0 | 0.0 | 0.00 | 0.00 | 0.00 | 98 | 1020.3 |
| 20260509212744 | 39 | 333 | 0.0 | 0.0 | 0.00 | 0.00 | 0.00 | 98 | 1020.3 |
| 20260509212244 | 40 | 333 | 0.0 | 0.0 | 0.00 | 0.00 | 0.00 | 98 | 1020.3 |
| 20260509211744 | 40 | 333 | 0.0 | 0.0 | 0.00 | 0.00 | 0.00 | 98 | 1020.3 |
| 20260509211244 | 40 | 330 | 0.0 | 0.0 | 0.00 | 0.00 | 0.00 | 98 | 1020.3 |
| 20260509210744 | 40 | 330 | 0.0 | 0.0 | 0.00 | 0.00 | 0.00 | 98 | 1020.3 |
| 20260509210244 | 40 | 330 | 0.0 | 0.0 | 0.00 | 0.00 | 0.00 | 98 | 1020.3 |
| 20260509205744 | 41 | 330 | 0.0 | 0.0 | 0.00 | 0.00 | 0.00 | 98 | 1020.3 |
| 20260509205244 | 40 | 330 | 0.0 | 0.0 | 0.00 | 0.00 | 0.00 | 98 | 1020.3 |
| 20260509204744 | 41 | 330 | 0.0 | 0.0 | 0.00 | 0.00 | 0.00 | 98 | 1020.3 |
| 20260509204244 | 41 | 327 | 0.0 | 0.0 | 0.00 | 0.00 | 0.00 | 98 | 1020.3 |
| 20260509203744 | 42 | 312 | 0.0 | 0.0 | 0.00 | 0.00 | 0.00 | 98 | 1020.3 |
| 20260509203244 | 42 | 338 | 0.0 | 0.0 | 0.00 | 0.00 | 0.00 | 98 | 1020.3 |
| 20260509202744 | 42 | 338 | 0.0 | 0.0 | 0.00 | 0.00 | 0.00 | 97 | 1020.3 |
| 20260509202244 | 42 | 341 | 0.0 | 0.0 | 0.00 | 0.00 | 0.00 | 98 | 1020.3 |
| 20260509201744 | 42 | 335 | 0.0 | 0.0 | 0.00 | 0.00 | 0.00 | 97 | 1020.3 |
| 20260509201244 | 42 | 335 | 0.0 | 0.0 | 0.00 | 0.00 | 0.00 | 97 | 1020.3 |
| 20260509200744 | 42 | 338 | 0.0 | 0.0 | 0.00 | 0.00 | 0.00 | 97 | 1020.3 |
| 20260509200244 | 43 | 338 | 0.0 | 0.0 | 0.00 | 0.00 | 0.00 | 97 | 1020.3 |
| 20260509195744 | 43 | 338 | 0.0 | 0.0 | 0.00 | 0.00 | 0.00 | 97 | 1020.3 |
| 20260509195244 | 44 | 323 | 0.0 | 0.0 | 0.00 | 0.00 | 0.00 | 97 | 1020.3 |
| 20260509194744 | 44 | 338 | 0.0 | 0.0 | 0.00 | 0.00 | 0.00 | 97 | 1020.7 |
| 20260509194244 | 44 | 338 | 0.0 | 0.0 | 0.00 | 0.00 | 0.00 | 97 | 1020.7 |
| 20260509193744 | 44 | 337 | 0.0 | 0.0 | 0.00 | 0.00 | 0.00 | 97 | 1020.7 |
| 20260509193244 | 44 | 337 | 0.0 | 0.0 | 0.00 | 0.00 | 0.00 | 97 | 1020.7 |
| 20260509192744 | 45 | 336 | 0.0 | 0.0 | 0.00 | 0.00 | 0.00 | 96 | 1020.7 |
| 20260509192244 | 45 | 332 | 0.0 | 0.0 | 0.00 | 0.00 | 0.00 | 96 | 1020.7 |
| 20260509191744 | 46 | 332 | 0.0 | 0.0 | 0.00 | 0.00 | 0.00 | 95 | 1020.7 |
| 20260509191244 | 46 | 327 | 0.0 | 0.0 | 0.00 | 0.00 | 0.00 | 95 | 1020.7 |
| 20260509190744 | 46 | 328 | 0.0 | 0.0 | 0.00 | 0.00 | 0.00 | 94 | 1020.7 |
| 20260509190244 | 47 | 341 | 0.0 | 0.0 | 0.00 | 0.00 | 0.00 | 93 | 1020.7 |
| 20260509185744 | 47 | 341 | 0.0 | 0.0 | 0.00 | 0.00 | 0.00 | 93 | 1020.3 |
| 20260509185244 | 48 | 341 | 0.0 | 0.0 | 0.00 | 0.00 | 0.00 | 92 | 1020.3 |
| 20260509184744 | 49 | 341 | 0.0 | 0.0 | 0.00 | 0.00 | 0.00 | 91 | 1020.3 |
| 20260509184244 | 49 | 341 | 0.0 | 0.0 | 0.00 | 0.00 | 0.00 | 89 | 1020.3 |
| 20260509183744 | 50 | 341 | 0.0 | 0.0 | 0.00 | 0.00 | 0.00 | 88 | 1020.3 |
| 20260509183244 | 51 | 341 | 0.0 | 0.0 | 0.00 | 0.00 | 0.00 | 86 | 1020.3 |
| 20260509182744 | 51 | 308 | 1.0 | 1.0 | 0.00 | 0.00 | 0.00 | 85 | 1020.3 |
| 20260509182244 | 52 | 287 | 1.0 | 1.0 | 0.00 | 0.00 | 0.00 | 83 | 1020.3 |
| 20260509181744 | 52 | 302 | 1.0 | 1.0 | 0.00 | 0.00 | 0.00 | 82 | 1020.3 |
| 20260509181244 | 52 | 339 | 0.0 | 0.0 | 0.05 | 0.00 | 0.00 | 83 | 1020.3 |
| 20260509180744 | 52 | 339 | 0.0 | 0.0 | 0.05 | 0.00 | 0.00 | 82 | 1020.3 |
| 20260509180244 | 52 | 344 | 0.0 | 0.0 | 0.00 | 0.00 | 0.00 | 81 | 1020.3 |
| 20260509175744 | 52 | 341 | 0.0 | 0.0 | 0.00 | 0.00 | 0.00 | 80 | 1020.3 |
| 20260509175244 | 52 | 347 | 0.0 | 0.0 | 0.00 | 0.00 | 0.00 | 80 | 1020.3 |
| 20260509174744 | 53 | 352 | 1.0 | 1.0 | 0.00 | 0.00 | 0.00 | 79 | 1020.3 |
| 20260509174244 | 53 | 345 | 0.0 | 0.0 | 0.00 | 0.00 | 0.00 | 79 | 1020.3 |
| 20260509173744 | 53 | 0 | 3.0 | 3.0 | 0.00 | 0.00 | 0.00 | 77 | 1020.3 |
| 20260509173244 | 53 | 16 | 0.0 | 1.0 | 0.00 | 0.00 | 0.00 | 78 | 1020.3 |
| 20260509172744 | 53 | 353 | 1.0 | 1.0 | 0.05 | 0.00 | 0.00 | 77 | 1020.3 |
| 20260509172244 | 53 | 17 | 0.0 | 1.0 | 0.05 | 0.00 | 0.00 | 77 | 1020.0 |
| 20260509171744 | 53 | 16 | 3.0 | 5.0 | 0.00 | 0.00 | 0.00 | 76 | 1020.0 |
| 20260509171244 | 53 | 353 | 1.0 | 2.0 | 0.00 | 0.00 | 0.00 | 77 | 1020.0 |
| 20260509170744 | 53 | 6 | 3.0 | 4.0 | 0.00 | 0.00 | 0.00 | 76 | 1020.0 |
| 20260509170244 | 54 | 8 | 1.0 | 2.0 | 0.00 | 0.00 | 0.00 | 76 | 1020.0 |
| 20260509165744 | 54 | 16 | 2.0 | 2.0 | 0.00 | 0.00 | 0.00 | 76 | 1020.0 |
| 20260509165244 | 54 | 3 | 1.0 | 1.0 | 0.00 | 0.00 | 0.00 | 76 | 1020.0 |
| 20260509164744 | 54 | 64 | 3.0 | 3.0 | 0.00 | 0.00 | 0.00 | 75 | 1020.0 |
| 20260509164244 | 54 | 15 | 1.0 | 1.0 | 0.00 | 0.00 | 0.00 | 75 | 1020.0 |
| 20260509163745 | 54 | 353 | 0.0 | 1.0 | 0.00 | 0.00 | 0.00 | 75 | 1020.3 |
| 20260509163244 | 54 | 350 | 4.0 | 4.0 | 0.00 | 0.00 | 0.00 | 74 | 1020.3 |
| 20260509162744 | 54 | 53 | 2.0 | 2.0 | 0.00 | 0.00 | 0.00 | 75 | 1020.3 |
| 20260509162244 | 54 | 357 | 3.0 | 4.0 | 0.00 | 0.00 | 0.00 | 75 | 1020.0 |
| 20260509161744 | 54 | 11 | 1.0 | 2.0 | 0.00 | 0.00 | 0.00 | 75 | 1020.0 |
| 20260509161244 | 54 | 25 | 2.0 | 3.0 | 0.00 | 0.00 | 0.00 | 75 | 1020.0 |
| 20260509160744 | 54 | 348 | 1.0 | 2.0 | 0.00 | 0.00 | 0.00 | 75 | 1020.0 |
| 20260509160244 | 54 | 20 | 6.0 | 7.0 | 0.00 | 0.00 | 0.00 | 74 | 1020.0 |
| 20260509155744 | 54 | 69 | 4.0 | 4.0 | 0.00 | 0.00 | 0.00 | 74 | 1020.0 |
| 20260509155244 | 55 | 91 | 1.0 | 4.0 | 0.00 | 0.00 | 0.00 | 73 | 1020.0 |
| 20260509154744 | 55 | 0 | 3.0 | 4.0 | 0.00 | 0.00 | 0.00 | 71 | 1020.0 |
| 20260509154244 | 55 | 350 | 3.0 | 4.0 | 0.00 | 0.00 | 0.00 | 70 | 1020.0 |
| 20260509153744 | 55 | 341 | 2.0 | 2.0 | 0.00 | 0.00 | 0.00 | 68 | 1020.0 |
| 20260509153244 | 55 | 25 | 4.0 | 5.0 | 0.00 | 0.00 | 0.00 | 67 | 1020.0 |